星链-35754(STARLINK-35754)

导读

STARLINK-35754是美国SpaceX星链星座的一员,于2025年12月11日发射。星链项目旨在构建全球卫星互联网,该卫星属于低轨通信卫星,承担为全球偏远地区、海洋空域等场景提供高速宽带网络接入的任务,进一步扩充了星链星座的在轨规模,增强星座服务覆盖能力与运行稳定性。

Basic Information
目录编号:
67054
目录名称:
STARLINK-35754
国际标识:
2025-294AA
轨道中心:
EARTH
卫星名称:
星链-35754
卫星全名:
星链-35754(STARLINK-35754)
卫星状态:
在轨 (已飞行278 天)
发射日期:
2025-12-11 UTC
国别 :
美国 (US)
星等 :
--
This satellite is enrolled in the Space Conjunction Data Service (SCDS) and the current flight risk assessment level is: High Risk
Orbit Information
数据来源 国际轨道数据
星历时间: 2026-09-15T05:02:37+0800
11小时前
查看轨道信息
半长轴: 6861.16km
偏心率: 0.000149
轨道倾角: 43.004°
近地点辐角 273.290°
升交点赤经 49.581°
平近点角 86.778°
近地点: 482km
远地点: 484.046km
周期: 94.266分钟
每日圈数: 15.27589
Detailed Information
固有亮度:
5
最大亮度:
2.5
卫星平台:
Starlink V1.0
覆盖范围:
全球
运营商:
太空探索技术公司
运营商所在国:
美国
制造商(研发单位):
太空探索技术公司
制造商所在国:
美国
使用方式:
暂无
Satellite Introduction
Starlink 计划是 SpaceX 推出的全球卫星互联网项目,通过发射低轨道卫星,为全球尤其是偏远地区提供高速、低延迟的互联网服务。自 2019 年起,Starlink 已部署数千颗卫星,旨在缩小全球数字鸿沟,推动互联网普及。该项目还为军事、航空等行业提供通信支持,带来广泛经济效益。
2D Orbit Map
3D Orbit Map
Orbit Altitude Analysis Chart
Orbit Inclination Analysis Chart
Orbit Comprehensive Analysis Chart
View Comprehensive Chart
Conjunction Data List
Event ID Objects TCA Miss Dist (km) Collision Risk Probability Collision Risk Index (CRI) Action
CDM_260916-204005-812406-705421
2026-09-16T
20:40:43+0000
0.242 km
中距离
5.147422E-4 高风险 0.89
CDM_260917-113505-812406-705421
2026-09-17T
11:35:11+0000
0.853 km
远距离
2.92095E-5 中风险 0.64
CDM_260917-043406-164306-705421
2026-09-17T
04:34:28+0000
1.108 km
极远距离
1.322339E-5 中风险 0.57
CDM_260916-221405-812406-705421
2026-09-16T
22:14:53+0000
1.641 km
极远距离
3.246979E-6 低风险 0.45
CDM_260917-100105-812406-705421
2026-09-17T
10:01:02+0000
1.669 km
极远距离
3.086049E-6 低风险 0.45
CDM_260916-190605-812406-705421
2026-09-16T
19:06:34+0000
2.076 km
极远距离
1.730318E-6 低风险 0.4
Miss Distance Evolution Trend with All Objects Subscribe to Flight Safety Assessment
Collision Probability Evolution Trend with All Objects Subscribe to Flight Safety Assessment